Location: Grandview
(34.8900°N, 117.1058°W)
Time: 09:07:00
(UTC-07:00)

ISS - Pass Details

Date: 13 October 2017
Orbit: 401 x 408 km, 51.6° (Epoch: 20 October)

Event Time Altitude Azimuth Distance (km) Brightness Sun altitude
Rises 20:25:12 0° 306° (NW) 2,322 1.0 -27.3°
Reaches altitude 10° 20:27:20 10° 300° (WNW) 1,461 -0.2 -27.7°
Enters shadow 20:28:27 19° 291° (WNW) 1,038 -1.0 -28.0°
